Location: Bittkow
(50.3000°N, 19.0000°E)
Time: 02:17:30
(UTC+00:00)

Gbstr 26 Del rocket - Pass Details

Date: 19 September 2020
Orbit: 493 x 1264 km, 51.8° (Epoch: 30 October)

Event Time Altitude Azimuth Distance (km) Brightness Sun altitude
Exits shadow 00:44:56 63° 288° (WNW) 1,392 4.5 -31.6°
Maximum altitude 00:46:25 80° 358° (N) 1,276 4.5 -31.5°
Drops below altitude 10° 00:54:15 10° 86° (E) 3,104 7.1 -30.7°
Sets 00:56:55 0° 88° (E) 3,990 7.8 -30.4°
